Wind_Speed
7 8 8 8 7 7 7 8 8 7 7 7 6 6 6 7 7 7 7 7 7 7 7 7 7 8 8 7 8 9 9 9 9 10 11 11 11 10 10 11 11 10 10
8 8 9 9 8 8 7 8 9 8 8 8 7 7 6 7 8 8 7 7 7 7 7 8 8 8 8 8 8 8 8 8 9 9 9 10 10 10 11 10 11 11 11
8 8 9 9 9 8 8 8 8 9 8 8 8 8 7 8 9 9 9 9 8 8 8 8 8 9 9 9 9 10 9 9 9 9 10 10 11 11 11 10 11 11 11
10 9 9 9 10 10 8 8 8 8 9 9 9 9 9 9 10 9 9 9 9 9 9 9 9 10 10 10 10 10 10 10 10 9 10 10 11 11 11 10 10 11 11
11 10 9 9 10 10 9 8 8 9 9 9 9 9 10 10 10 10 10 10 9 9 9 9 10 10 10 11 11 10 10 10 10 9 9 10 10 10 10 10 10 11 11
12 10 9 9 9 9 10 9 9 9 9 10 10 10 10 10 10 10 10 11 10 10 9 9 10 10 10 11 11 10 9 10 9 9 9 10 10 10 10 10 10 11 11
12 11 10 9 10 10 10 10 10 10 10 11 11 11 11 11 10 10 11 11 10 10 10 10 10 10 10 10 10 9 9 9 10 10 10 10 10 10 10 10 11 11 12
12 12 12 11 11 11 12 12 12 11 11 11 11 11 11 10 10 10 10 11 11 11 11 10 11 10 10 9 9 9 10 10 10 9 9 9 9 10 11 11 12 12 12
13 13 12 12 13 13 13 13 13 13 12 12 12 12 12 11 11 11 11 10 11 11 11 11 12 11 11 11 11 11 11 11 10 10 10 10 10 10 11 12 12 13 13
14 13 13 14 14 14 14 14 14 14 14 13 13 13 13 12 11 12 11 11 11 11 11 11 11 12 12 12 12 12 12 11 11 10 9 10 11 11 11 12 12 12 12
15 15 14 15 15 14 15 15 14 14 14 14 13 12 12 12 11 11 11 11 11 11 11 11 12 12 12 12 12 12 12 12 11 11 11 11 11 12 12 13 13 13 13
15 16 15 15 15 15 15 16 15 14 14 14 13 12 12 12 12 11 11 11 11 11 11 11 12 12 12 12 12 12 12 12 12 12 12 12 12 12 13 13 13 13 14
17 17 16 15 15 16 16 16 16 14 13 13 13 12 12 13 13 12 12 12 12 12 12 11 12 12 12 12 12 12 12 13 13 13 12 12 12 12 13 13 13 13 13
17 17 16 16 16 16 16 16 16 15 14 14 14 13 14 13 13 13 13 13 13 13 12 12 12 12 13 13 13 13 13 13 13 12 12 12 13 13 13 13 13 13 13
16 15 15 15 16 16 16 16 16 15 15 15 14 14 14 14 14 14 14 14 13 13 13 13 12 12 13 14 13 13 13 13 12 12 12 13 13 12 13 13 12 13 14
17 17 16 15 15 15 16 16 16 16 16 16 15 15 15 15 15 14 14 14 14 14 13 13 13 13 12 12 13 13 13 12 13 13 13 13 14 14 14 14 13 14 14
17 17 16 16 16 16 15 16 16 16 16 16 15 15 15 15 15 14 14 14 14 14 14 13 13 13 13 13 13 13 12 13 14 14 14 14 14 15 14 14 14 14 14
17 17 17 16 15 15 16 16 17 17 17 16 16 15 15 15 15 15 15 15 15 15 14 14 14 13 13 13 14 14 14 14 14 14 14 14 15 15 16 15 15 15 15
17 17 17 16 16 16 16 17 18 18 18 18 17 17 16 16 16 16 16 16 16 16 15 15 15 14 14 14 14 14 14 14 15 15 15 15 16 16 16 16 17 17 17
17 17 17 17 17 17 16 17 18 19 19 19 19 18 18 18 17 17 17 17 17 16 16 16 16 16 16 15 15 15 15 15 15 16 16 16 16 16 17 17 18 18 19
19 19 19 19 18 18 17 17 18 19 19 20 20 20 20 20 19 19 18 18 17 17 17 18 18 17 17 16 16 16 15 15 15 16 16 16 16 17 17 17 18 18 19
21 21 21 21 20 20 19 18 19 19 20 20 21 22 22 21 21 20 20 19 18 18 18 18 18 18 17 17 17 16 16 16 16 16 17 16 16 17 17 18 18 19 19
23 23 22 22 21 21 20 19 19 20 21 21 22 23 23 23 23 22 22 21 20 20 20 19 18 18 18 17 17 17 17 17 17 17 17 17 17 18 18 19 19 20 20
23 22 22 22 22 21 20 20 20 20 21 22 23 23 24 23 23 24 24 23 22 21 21 20 19 19 19 18 18 18 17 17 17 18 18 18 18 18 19 19 20 20 21
23 23 23 23 23 22 22 21 21 21 21 22 23 24 25 25 24 24 24 24 23 23 23 22 21 20 20 20 19 19 19 19 19 19 19 19 19 20 20 21 21 21 22
24 24 24 24 24 24 24 23 23 22 22 23 23 24 25 25 25 25 25 25 24 24 24 24 23 22 22 21 21 21 20 20 20 20 21 20 21 21 21 21 22 22 23
Wind_Direction
265 260 261 254 249 244 240 236 236 237 243 247 251 257 267 266 261 260 261 260 255 251 252 256 257 261 267 273 274 277 277 269 264 256 250 253 252 252 256 254 253 255 254
271 264 260 253 245 241 241 243 240 242 241 241 245 253 261 265 263 261 259 257 252 249 249 252 254 260 265 271 277 279 279 271 262 258 254 251 251 254 258 257 254 257 257
269 269 260 253 247 241 240 243 241 240 243 246 249 253 260 264 264 262 259 256 254 254 255 253 255 260 265 269 274 279 278 274 267 260 256 253 253 256 255 258 257 258 259
264 265 263 260 250 244 243 244 243 242 243 245 248 256 261 263 264 263 262 258 259 262 264 263 262 266 267 271 273 276 276 275 273 267 262 258 259 258 254 256 259 261 263
262 262 262 262 255 249 247 247 246 247 246 246 249 256 261 262 262 263 261 260 261 263 266 268 266 267 268 270 274 276 276 275 275 276 269 266 263 262 261 260 262 263 266
262 262 260 261 259 258 253 249 250 249 249 253 253 255 260 263 263 265 263 262 260 261 263 268 269 269 268 268 274 279 280 278 277 277 274 272 269 266 269 263 261 264 268
263 260 265 264 264 259 253 252 250 249 251 255 257 256 259 262 262 264 263 260 257 259 262 266 270 272 270 269 270 278 280 279 277 276 275 276 269 268 266 267 265 265 269
268 266 266 265 264 259 258 254 251 250 255 257 258 260 263 262 262 264 264 262 260 259 261 265 267 268 270 270 271 274 276 281 281 277 273 273 269 271 271 270 270 269 270
267 271 265 264 262 257 257 256 253 253 256 258 259 260 263 264 260 260 260 261 261 260 261 263 265 268 270 271 274 275 277 281 281 274 270 268 268 269 272 274 274 272 270
269 268 262 259 257 257 258 256 255 258 258 258 259 260 260 262 260 257 257 260 261 260 262 266 270 271 272 272 273 274 276 278 280 276 271 271 272 270 272 276 277 278 276
268 266 263 261 257 257 257 254 258 255 256 255 254 255 256 257 261 259 260 261 262 264 265 271 271 269 269 270 271 273 274 277 280 277 274 273 273 271 273 277 278 280 279
266 264 265 263 261 259 257 255 258 258 257 255 251 249 252 254 257 257 259 260 262 266 268 272 273 269 269 272 273 274 275 275 278 276 275 274 272 271 275 277 278 279 278
265 264 263 263 262 258 257 256 256 257 255 253 252 251 252 253 255 259 261 263 264 270 271 272 274 273 273 276 275 276 277 275 273 274 274 275 272 271 274 276 279 281 278
265 264 264 264 262 258 257 256 255 254 253 251 251 251 253 254 255 258 263 266 269 271 272 274 276 277 275 278 278 277 276 275 273 274 274 274 270 270 273 275 280 281 279
268 266 266 265 262 257 255 255 253 252 253 252 251 250 252 254 256 259 263 266 268 268 269 272 275 279 276 278 277 277 276 273 273 273 272 272 269 271 273 274 277 278 279
268 269 269 267 264 259 255 254 252 248 248 250 250 251 253 255 258 260 260 263 265 266 267 272 275 279 284 279 278 276 274 273 274 275 272 271 268 270 271 274 275 277 279
267 268 265 264 262 260 257 256 254 251 250 250 251 253 255 257 258 260 261 264 267 266 267 271 275 278 281 281 279 276 276 275 274 274 274 273 269 269 272 275 276 278 280
263 265 263 262 261 259 256 254 252 251 251 252 253 255 256 256 257 260 262 264 266 266 266 268 272 276 278 280 282 279 278 278 277 277 277 276 273 272 273 275 277 278 280
261 261 259 259 260 258 256 253 251 250 251 252 252 254 255 255 256 259 261 263 266 266 266 267 269 272 275 278 281 280 281 281 279 280 280 279 276 275 275 275 275 277 279
258 257 256 257 258 258 256 253 252 251 250 251 252 254 255 254 254 258 261 263 266 265 265 266 268 271 273 276 278 280 280 281 280 280 280 279 278 277 277 276 276 278 282
257 258 257 256 256 256 257 254 252 251 251 250 251 253 254 254 255 257 260 262 263 263 264 265 267 271 271 274 278 282 282 281 282 283 282 281 279 277 277 276 277 279 282
257 258 256 255 255 256 257 256 254 252 252 252 252 253 254 255 256 259 258 259 260 262 264 265 267 269 270 273 277 280 282 282 282 282 280 279 279 278 278 278 280 281 282
256 256 253 253 254 253 256 256 256 255 253 253 253 254 255 256 256 257 257 258 259 261 263 265 268 270 271 272 275 277 280 283 284 284 281 279 279 280 280 281 282 283 284
254 253 252 251 251 252 254 255 255 257 256 255 253 253 254 255 256 256 256 258 259 261 263 265 267 269 271 272 273 276 279 282 282 284 282 280 279 280 282 282 283 285 285
255 252 250 249 250 251 254 255 257 256 255 256 255 254 255 257 259 257 256 257 259 261 262 262 264 266 268 269 271 274 278 280 282 283 285 282 280 280 280 281 282 284 285
255 253 252 250 250 251 254 256 257 257 256 256 256 256 257 258 258 257 257 258 259 260 262 262 263 264 266 268 270 273 276 279 280 281 283 282 281 281 280 280 281 283 284
Height
5877 5877 5877 5877 5877 5877 5878 5878 5879 5879 5880 5880 5880 5880 5880 5880 5880 5880 5879 5879 5879 5879 5879 5879 5879 5879 5879 5878 5877 5876 5873 5872 5872 5873 5875 5876 5877 5878 5878 5878 5879 5879 5879
5875 5875 5875 5875 5875 5875 5875 5876 5877 5877 5877 5878 5878 5879 5879 5879 5878 5878 5878 5878 5878 5878 5878 5878 5878 5878 5877 5877 5876 5875 5873 5872 5872 5873 5874 5875 5875 5876 5876 5876 5876 5876 5877
5873 5873 5873 5873 5873 5873 5873 5874 5874 5875 5875 5876 5876 5877 5877 5877 5877 5877 5876 5876 5876 5876 5876 5876 5876 5876 5875 5875 5874 5874 5873 5872 5872 5872 5872 5873 5873 5874 5874 5874 5874 5874 5874
5871 5871 5871 5871 5871 5871 5871 5872 5872 5873 5873 5874 5874 5875 5875 5875 5875 5875 5875 5874 5874 5874 5874 5874 5874 5874 5873 5873 5872 5872 5871 5871 5870 5870 5870 5871 5871 5871 5871 5872 5872 5872 5872
5868 5868 5869 5869 5869 5869 5869 5869 5870 5870 5871 5872 5872 5872 5873 5873 5873 5873 5873 5873 5872 5872 5872 5872 5872 5872 5871 5871 5870 5870 5869 5869 5868 5868 5868 5868 5868 5869 5869 5869 5869 5870 5870
5866 5866 5866 5866 5866 5866 5867 5867 5867 5868 5869 5869 5870 5870 5870 5871 5871 5871 5870 5870 5870 5870 5870 5870 5870 5869 5869 5868 5868 5868 5867 5867 5867 5866 5866 5866 5866 5867 5867 5867 5867 5867 5867
5863 5863 5863 5863 5863 5864 5864 5865 5865 5866 5866 5867 5867 5868 5868 5868 5868 5868 5868 5868 5868 5868 5868 5868 5868 5867 5866 5866 5866 5865 5865 5865 5865 5864 5864 5864 5864 5864 5864 5864 5864 5864 5864
5860 5860 5860 5860 5860 5861 5861 5862 5862 5863 5863 5864 5864 5865 5865 5866 5865 5866 5865 5865 5866 5866 5866 5866 5865 5865 5864 5864 5864 5864 5863 5863 5862 5862 5862 5862 5862 5861 5862 5861 5861 5861 5861
5857 5857 5857 5857 5857 5858 5858 5859 5859 5860 5861 5861 5861 5862 5862 5863 5863 5863 5863 5863 5863 5863 5863 5863 5863 5862 5862 5862 5861 5861 5860 5860 5860 5860 5859 5859 5859 5859 5859 5858 5858 5858 5858
5854 5853 5854 5854 5854 5854 5855 5855 5856 5857 5858 5858 5858 5859 5860 5860 5860 5861 5861 5861 5861 5860 5860 5860 5860 5860 5859 5859 5858 5858 5858 5857 5857 5857 5856 5856 5856 5856 5856 5856 5856 5855 5855
5850 5850 5850 5850 5850 5851 5851 5852 5853 5853 5854 5854 5855 5856 5856 5857 5857 5857 5858 5858 5858 5858 5858 5857 5857 5857 5856 5856 5855 5855 5855 5854 5854 5854 5853 5853 5853 5853 5853 5853 5853 5852 5852
5847 5847 5847 5847 5847 5847 5848 5848 5849 5850 5850 5851 5851 5852 5853 5854 5854 5855 5855 5855 5855 5855 5855 5854 5854 5854 5853 5853 5852 5852 5851 5851 5851 5850 5850 5850 5850 5850 5850 5850 5849 5849 5849
5843 5843 5843 5843 5843 5843 5844 5844 5845 5846 5846 5847 5848 5849 5850 5850 5851 5852 5852 5852 5852 5852 5852 5851 5851 5851 5850 5850 5849 5849 5848 5848 5847 5847 5847 5847 5846 5846 5846 5846 5846 5845 5845
5839 5839 5839 5839 5839 5839 5840 5840 5841 5842 5843 5843 5844 5845 5846 5847 5847 5848 5849 5849 5849 5849 5848 5848 5848 5848 5847 5846 5846 5845 5845 5844 5844 5843 5843 5843 5843 5843 5843 5843 5842 5842 5841
5835 5835 5835 5835 5835 5835 5836 5837 5837 5838 5839 5840 5840 5841 5842 5843 5844 5844 5845 5845 5846 5845 5846 5845 5845 5845 5844 5843 5842 5842 5841 5841 5840 5840 5840 5840 5840 5840 5840 5839 5839 5838 5838
5830 5831 5831 5831 5831 5831 5832 5833 5833 5834 5835 5836 5837 5838 5838 5839 5840 5841 5841 5842 5842 5842 5842 5842 5842 5841 5840 5840 5839 5838 5838 5837 5837 5836 5836 5836 5836 5836 5836 5836 5835 5835 5834
5826 5826 5826 5827 5827 5827 5828 5828 5829 5830 5831 5832 5833 5834 5834 5835 5836 5837 5837 5838 5838 5838 5839 5839 5838 5838 5837 5836 5836 5835 5834 5834 5833 5833 5833 5833 5833 5832 5832 5832 5831 5831 5830
5820 5821 5822 5822 5822 5823 5824 5825 5825 5826 5827 5828 5829 5830 5831 5831 5832 5833 5833 5834 5834 5835 5835 5835 5835 5834 5834 5833 5833 5832 5831 5830 5830 5830 5829 5829 5829 5828 5828 5828 5827 5827 5826
5815 5816 5817 5817 5818 5818 5819 5820 5821 5822 5823 5824 5825 5826 5826 5827 5828 5828 5829 5830 5830 5830 5831 5831 5831 5831 5830 5829 5829 5828 5827 5827 5826 5826 5825 5825 5824 5824 5824 5823 5823 5822 5822
5811 5811 5812 5812 5813 5813 5814 5815 5816 5817 5818 5819 5820 5821 5822 5823 5824 5824 5825 5825 5826 5826 5826 5826 5827 5827 5826 5826 5825 5824 5824 5823 5822 5821 5821 5820 5820 5819 5819 5819 5818 5818 5817
5805 5806 5806 5807 5808 5808 5809 5810 5810 5811 5812 5813 5815 5816 5817 5818 5819 5820 5820 5821 5821 5821 5822 5822 5822 5822 5822 5822 5821 5820 5819 5819 5818 5817 5817 5816 5815 5815 5814 5814 5813 5813 5812
5798 5799 5800 5801 5802 5803 5804 5804 5805 5806 5807 5808 5809 5810 5811 5812 5813 5814 5815 5816 5816 5817 5817 5817 5817 5817 5817 5817 5817 5816 5815 5815 5814 5814 5812 5812 5811 5810 5809 5809 5808 5807 5806
5792 5793 5794 5795 5795 5796 5797 5798 5799 5800 5801 5802 5803 5804 5805 5807 5808 5809 5810 5810 5811 5812 5812 5812 5812 5812 5813 5812 5812 5811 5811 5810 5809 5809 5808 5807 5806 5805 5804 5803 5803 5802 5801
5785 5786 5787 5788 5789 5790 5791 5792 5793 5794 5795 5796 5797 5798 5799 5800 5801 5803 5804 5805 5806 5806 5807 5807 5808 5808 5807 5807 5807 5807 5806 5805 5805 5804 5803 5802 5801 5800 5799 5798 5797 5796 5795
5778 5779 5780 5781 5782 5784 5785 5786 5787 5787 5788 5789 5790 5791 5793 5794 5795 5796 5797 5798 5799 5800 5801 5801 5802 5802 5802 5802 5801 5801 5800 5800 5799 5799 5798 5797 5795 5794 5793 5792 5791 5790 5789
5770 5771 5773 5774 5775 5777 5778 5779 5780 5781 5782 5783 5784 5785 5786 5787 5788 5789 5790 5792 5793 5794 5794 5795 5795 5796 5796 5796 5795 5795 5795 5794 5794 5793 5792 5791 5790 5788 5788 5786 5785 5783 5782